Powrót do katalogu

STARLINK-11136

AktywnyŁącznośćVLEO
NORAD 60407·PAYLOAD·🇺🇸 United States

Wystrzelony Aug 10, 2024 z Cape Canaveral Space Force Station

Loading…

Następne Przeloty (najbliższe 24 godziny)

TLE

ŚwieżeSource: CelesTrak SupGP

Epoka: Sep 14, 2026, 22:34 UTC

1 60407C 24141K   26257.94076389  .00053996  00000+0  44462-3 0  2578
2 60407  53.1576 233.4445 0001231  91.9225 324.3820 15.69691480    18

Śledź STARLINK-11136 w czasie rzeczywistym z AllMySat

Download on the App Store